This is the latest recevied weather packets stored in our database for station/object 9M8ZAL-13. If no packets are shown the sender has not sent any weather packets the latest 10 day(s).
| Time | Temp. | Humidity | Pressure | Rain* | Wind** | Luminosity | Snow |
|---|---|---|---|---|---|---|---|
| 1776911323 | 32.78° C | - | 1008.7 hPa | - | - | 1007 W/m² | - |
| 1776910723 | 31.67° C | - | 1008.8 hPa | - | - | 1007 W/m² | - |
| 1776910124 | 31.67° C | - | 1008.7 hPa | - | - | 1007 W/m² | - |
| 1776909523 | 31.11° C | - | 1008.9 hPa | - | - | 1006 W/m² | - |
| 1776908924 | 31.67° C | - | 1008.9 hPa | - | - | 1007 W/m² | - |
| 1776908324 | 31.11° C | - | 1008.8 hPa | - | - | 1006 W/m² | - |
| 1776907724 | 30.56° C | - | 1009 hPa | - | - | 1005 W/m² | - |
| 1776907123 | 30.56° C | - | 1009 hPa | - | - | 1005 W/m² | - |
| 1776906524 | 30° C | - | 1008.9 hPa | - | - | 1005 W/m² | - |
| 1776905923 | 30° C | - | 1008.8 hPa | - | - | 1005 W/m² | - |
| 1776905323 | 29.44° C | - | 1008.9 hPa | - | - | 1004 W/m² | - |
| 1776904723 | 29.44° C | - | 1008.7 hPa | - | - | 1004 W/m² | - |
| 1776904123 | 28.89° C | - | 1008.6 hPa | - | - | 1004 W/m² | - |
| 1776903523 | 28.89° C | - | 1008.5 hPa | - | - | 1004 W/m² | - |
| 1776902923 | 28.33° C | - | 1008.4 hPa | - | - | 1004 W/m² | - |
| 1776902323 | 28.33° C | - | 1008.3 hPa | - | - | 1004 W/m² | - |
| 1776901723 | 28.33° C | - | 1008.2 hPa | - | - | 1004 W/m² | - |
| 1776901123 | 27.78° C | - | 1008 hPa | - | - | 1003 W/m² | - |
| 1776900523 | 27.78° C | - | 1007.9 hPa | - | - | 1002 W/m² | - |
| 1776899923 | 27.78° C | - | 1007.8 hPa | - | - | 1001 W/m² | - |
| 1776899323 | 27.78° C | - | 1007.7 hPa | - | - | 1001 W/m² | - |
| 1776898723 | 27.78° C | - | 1007.6 hPa | - | - | 1001 W/m² | - |
| 1776898123 | 27.78° C | - | 1007.5 hPa | - | - | 1001 W/m² | - |
| 1776897523 | 27.78° C | - | 1007.4 hPa | - | - | 1000 W/m² | - |
| 1776896923 | 27.22° C | - | 1007.3 hPa | - | - | 1000 W/m² | - |
* Rain since midnight (hover to see other rain measurements)
** Current wind speed in m/s (hover to see current wind gust speed)